Location: Klein M�hlingen
(51.9472°N, 11.7453°E)
Time: 12:30:58
(UTC+00:00)

STARLINK-29 - Pass Details

Date: 09 April 2020
Orbit: 387 x 401 km, 53.0° (Epoch: 28 May)

Event Time Altitude Azimuth Distance (km) Brightness Sun altitude
Rises 18:40:56 0° 216° (SW) 2,276 7.0 -6.7°
Reaches altitude 10° 18:43:11 10° 202° (SSW) 1,427 5.8 -7.0°
Maximum altitude 18:45:52 25° 145° (SE) 847 4.1 -7.4°
Drops below altitude 10° 18:48:34 10° 88° (E) 1,442 5.2 -7.7°
Enters shadow 18:48:59 - 84° (E) 1,589 5.4 -7.8°
